WetterOnline ( https://www.wetteronline.de )

Wetter aktuell Lulea

Aktuelles Wetter: Lulea (17m)

6-stündlich | Neueste Meldungen
Ortszeit Temperatur Wetter
Sa, 28.11. 13:00 -5.7° C bedeckt
Sa, 28.11. 7:00 -10.7° C wolkenlos
Sa, 28.11. 1:00 -8.8° C wolkenlos
Fr, 27.11. 19:00 -5.9° C wolkig
Fr, 27.11. 13:00 -7.2° C wolkenlos
Fr, 27.11. 7:00 -7.2° C fast wolkenlos
Fr, 27.11. 1:00 -5.7° C wolkenlos
Do, 26.11. 19:00 -3.5° C wolkenlos
Ortszeit Temperatur Wetter
Sa, 28.11. 14:20 -3° C bedeckt
Sa, 28.11. 14:00 -3.4° C bedeckt
Sa, 28.11. 13:50 -4° C bedeckt
Sa, 28.11. 13:20 -5° C bedeckt
Sa, 28.11. 13:00 -5.7° C bedeckt
Sa, 28.11. 12:50 -7° C bedeckt
Sa, 28.11. 12:20 -9° C bewölkt
Sa, 28.11. 12:00 -9.0° C fast wolkenlos
Sa, 28.11. 11:20 -10° C -
Sa, 28.11. 11:00 -9.8° C wolkenlos
Ortszeit Relative Feuchte Sichtweite
Sa, 28.11. 13:00 96% 26 km
Sa, 28.11. 7:00 92% 26 km
Sa, 28.11. 1:00 95% 35 km
Fr, 27.11. 19:00 94% 19 km
Fr, 27.11. 13:00 91% 50 km
Fr, 27.11. 7:00 89% >70 km
Fr, 27.11. 1:00 88% 50 km
Do, 26.11. 19:00 87% 40 km
Ortszeit Relative Feuchte Sichtweite
Sa, 28.11. 14:20 100% >10 km
Sa, 28.11. 14:00 97% 21 km
Sa, 28.11. 13:50 100% >10 km
Sa, 28.11. 13:20 100% >10 km
Sa, 28.11. 13:00 96% 26 km
Sa, 28.11. 12:50 93% >10 km
Sa, 28.11. 12:20 92% >10 km
Sa, 28.11. 12:00 92% 22 km
Sa, 28.11. 11:20 92% >10 km
Sa, 28.11. 11:00 93% 24 km
Ortszeit Niederschlagsmenge Niederschlagsart
Sa, 28.11. 13:00 0.0 l/m2 -
Sa, 28.11. 7:00 0.0 l/m2 in 12 Std. -
Sa, 28.11. 1:00 0.0 l/m2 in 6 Std. -
Fr, 27.11. 19:00 0.0 l/m2 in 12 Std. -
Fr, 27.11. 13:00 0.0 l/m2 in 6 Std. -
Fr, 27.11. 7:00 0.0 l/m2 in 12 Std. -
Fr, 27.11. 1:00 0.0 l/m2 -
Do, 26.11. 19:00 0.1 l/m2 in 12 Std. -
Ortszeit Niederschlagsmenge Niederschlagsart
Sa, 28.11. 14:20 keine Meldung -
Sa, 28.11. 14:00 0.0 l/m2 in 1 Std. -
Sa, 28.11. 13:50 keine Meldung -
Sa, 28.11. 13:20 keine Meldung -
Sa, 28.11. 13:00 0.0 l/m2 in 1 Std. -
Sa, 28.11. 12:50 keine Meldung -
Sa, 28.11. 12:20 keine Meldung -
Sa, 28.11. 12:00 0.0 l/m2 in 1 Std. -
Sa, 28.11. 11:20 keine Meldung -
Sa, 28.11. 11:00 0.0 l/m2 in 1 Std. -
Ortszeit Stärke Spitze Richtung
km/h Bft. km/h Grad Sektor
Sa, 28.11. 13:00 4 1 4 200° S
Sa, 28.11. 7:00 7 2 7 320° NW
Sa, 28.11. 1:00 7 2 - 330° NW
Fr, 27.11. 19:00 7 2 7 330° NW
Fr, 27.11. 13:00 4 1 - 300° NW
Fr, 27.11. 7:00 7 2 - 350° N
Fr, 27.11. 1:00 14 3 25 340° N
Do, 26.11. 19:00 22 4 - 340° N
Ortszeit Stärke Spitze Richtung
km/h Bft. km/h Grad Sektor
Sa, 28.11. 14:20 9 2 - 200° S
Sa, 28.11. 14:00 7 2 11 200° S
Sa, 28.11. 13:50 6 1 - 200° S
Sa, 28.11. 13:20 2 1 - 240° SW
Sa, 28.11. 13:00 4 1 4 200° S
Sa, 28.11. 12:50 4 1 - 210° SW
Sa, 28.11. 12:20 4 1 - uml. uml.
Sa, 28.11. 12:00 0 0 7 - -
Sa, 28.11. 11:20 2 1 - uml. uml.
Sa, 28.11. 11:00 4 1 11 340° N
Ortszeit Untergrenze Bedeckung Gattung
total tief tief mittel hoch
Sa, 28.11. 13:00 240 m 8/8 8/8 - - -
Sa, 28.11. 7:00 - 0/8 0/8 - - -
Sa, 28.11. 1:00 - 0/8 0/8 - - -
Fr, 27.11. 19:00 330 m 8/8 3/8 - - -
Fr, 27.11. 13:00 - 0/8 0/8 - - -
Fr, 27.11. 7:00 6300 m 1/8 1/8 - - Ci
Fr, 27.11. 1:00 - 0/8 0/8 - - -
Do, 26.11. 19:00 - 0/8 0/8 - - -
Ortszeit Bedeckungsgrad in Achtel und Wolkenuntergrenze
Sa, 28.11. 14:20 5-7(150m) 8(240m)
Sa, 28.11. 14:00 5(180m) 8(240m)
Sa, 28.11. 13:50 5-7(180m) 8(240m)
Sa, 28.11. 13:20 8(210m)
Sa, 28.11. 13:00 8(240m)
Sa, 28.11. 12:50 8(210m)
Sa, 28.11. 12:20 3-4(180m) 5-7(240m)
Sa, 28.11. 12:00 1(300m)
Sa, 28.11. 11:20 keine Wolken(unter 1500 m)
Sa, 28.11. 11:00 keine Wolken
Ortszeit Luftdruck NN (hPa) Tendenz (hPa in 3 Std.)
Sa, 28.11. 13:00 1029 0,0
Sa, 28.11. 7:00 1027 + 1,1
Sa, 28.11. 1:00 1025 + 1,5
Fr, 27.11. 19:00 1023 + 1,4
Fr, 27.11. 13:00 1020 + 0,6
Fr, 27.11. 7:00 1017 + 1,4
Fr, 27.11. 1:00 1014 + 1,7
Do, 26.11. 19:00 1010 + 2,1
Ortszeit Luftdruck NN (hPa) Tendenz (hPa in 3 Std.)
Sa, 28.11. 14:20 1028 keine Meldung
Sa, 28.11. 14:00 1029 - 0,3
Sa, 28.11. 13:50 1028 keine Meldung
Sa, 28.11. 13:20 1028 keine Meldung
Sa, 28.11. 13:00 1029 0,0
Sa, 28.11. 12:50 1028 keine Meldung
Sa, 28.11. 12:20 1028 keine Meldung
Sa, 28.11. 12:00 1029 + 0,7
Sa, 28.11. 11:20 1028 keine Meldung
Sa, 28.11. 11:00 1029 + 1,4
Ortszeit Schneehöhe (cm)
Sa, 28.11. 13:00 -
Sa, 28.11. 7:00 -
Sa, 28.11. 1:00 -
Fr, 27.11. 19:00 -
Fr, 27.11. 13:00 -
Fr, 27.11. 7:00 2
Fr, 27.11. 1:00 -
Do, 26.11. 19:00 -
Ortszeit Schneehöhe (cm)
Sa, 28.11. 14:20 -
Sa, 28.11. 14:00 -
Sa, 28.11. 13:50 -
Sa, 28.11. 13:20 -
Sa, 28.11. 13:00 -
Sa, 28.11. 12:50 -
Sa, 28.11. 12:20 -
Sa, 28.11. 12:00 -
Sa, 28.11. 11:20 -
Sa, 28.11. 11:00 -
Link zu dieser Seite / Seite empfehlen

Das Wetter in ...